Temperature
16 16 15 15 15 15 15 15 15 15 15 15 15 15 15 15 15 15 15 15 15 15 15 15 15 15 15 15 15 15 15 14 14 14 14 14 14 14 14 14 14 14 15
15 15 15 15 15 15 15 15 15 15 15 15 15 15 15 15 15 15 15 15 15 15 15 14 14 14 14 14 14 14 14 14 14 14 14 14 14 14 14 14 14 14 14
15 15 15 15 15 15 15 15 15 15 15 15 15 14 14 14 14 14 14 14 14 14 14 14 14 14 14 14 14 14 14 14 14 14 14 14 14 14 14 14 14 14 14
15 15 15 15 15 15 15 15 15 15 14 14 14 14 14 14 14 14 14 14 14 14 14 14 14 14 14 14 14 14 14 14 14 14 14 14 14 13 13 13 13 13 13
15 15 15 15 15 15 15 14 14 14 14 14 14 14 14 14 14 14 14 14 14 14 14 14 14 14 13 13 13 13 14 13 13 13 13 13 13 13 13 13 13 13 13
15 15 15 15 15 15 14 14 14 14 14 14 14 14 14 14 14 14 14 13 13 13 13 13 13 13 13 13 13 13 13 13 13 13 13 13 13 13 13 13 12 12 13
15 15 15 15 15 15 14 14 14 14 14 14 14 14 13 13 13 13 13 13 13 13 13 13 13 13 13 13 13 13 13 13 13 13 13 13 13 13 12 12 12 12 12
15 15 15 15 15 14 14 14 14 14 14 14 14 14 13 13 13 13 13 13 13 13 13 13 13 13 13 13 13 13 13 13 12 12 12 13 12 12 12 12 12 12 12
15 15 15 15 15 15 14 14 14 14 14 14 14 14 13 13 13 13 13 13 13 13 13 13 13 13 13 13 13 13 12 12 12 12 12 12 12 12 12 12 12 11 11
15 15 15 15 15 14 14 14 14 14 14 14 14 14 14 14 13 13 13 12 12 12 12 12 12 12 12 12 12 12 12 12 12 12 12 12 12 12 12 12 11 11 11
14 14 14 14 14 14 14 14 14 14 14 14 14 14 14 14 13 13 13 12 12 12 12 12 12 12 12 12 12 12 12 12 12 12 12 12 12 12 11 11 11 11 11
14 14 14 14 14 14 14 14 14 14 14 14 14 14 14 14 14 13 13 12 12 12 12 12 12 12 12 12 12 12 12 12 12 12 12 11 11 11 11 11 11 11 11
14 14 14 14 14 14 14 14 14 14 14 14 14 14 14 14 14 14 13 13 12 12 12 12 12 12 12 12 12 12 12 12 12 12 12 11 11 11 11 11 11 11 10
14 14 14 14 14 14 14 14 14 14 14 14 14 14 14 14 14 14 13 13 12 12 12 12 12 12 12 12 12 12 12 12 12 12 12 11 11 11 11 11 11 10 10
14 14 14 14 14 14 14 14 14 14 14 14 14 14 14 14 14 14 13 13 13 12 12 12 12 12 11 11 11 11 12 11 11 11 11 11 11 11 11 11 10 10 10
14 14 14 14 14 14 14 14 14 14 14 14 14 14 14 14 14 13 13 13 13 13 13 12 12 12 11 11 11 11 11 11 11 11 11 11 11 11 11 11 10 10 10
14 14 14 14 14 14 14 14 14 14 14 14 14 14 14 14 14 14 13 13 13 13 13 12 12 12 11 11 11 11 11 11 11 11 11 11 11 11 11 11 10 10 10
14 14 14 14 14 14 14 14 14 14 14 14 14 14 14 14 14 13 13 13 13 13 13 13 12 12 11 11 11 11 11 11 11 11 11 11 11 11 11 10 10 10 10
14 14 13 14 14 14 14 14 14 14 14 14 14 14 14 14 14 13 13 13 13 13 13 13 13 12 12 11 11 11 11 11 11 11 11 11 11 10 10 10 10 10 10
14 14 13 14 14 14 14 14 13 13 13 14 14 13 13 13 13 13 13 13 13 13 13 12 12 12 12 11 11 11 11 11 11 10 10 10 10 10 10 10 10 10 10
13 13 13 13 13 13 13 13 13 13 13 13 13 13 13 13 13 13 13 13 13 13 13 12 12 12 12 12 11 11 11 10 10 10 10 10 10 10 10 10 10 10 9
13 13 13 13 13 13 13 13 13 13 13 13 13 13 13 13 13 13 13 13 13 13 13 13 12 12 12 12 11 11 11 10 10 10 10 10 10 10 10 9 9 9 9
13 13 13 13 13 13 13 13 13 13 13 13 13 13 13 13 13 13 13 13 13 13 13 13 13 12 12 12 11 11 11 10 10 10 10 10 10 10 9 9 9 9 9
12 12 12 12 13 13 12 13 13 13 13 13 13 13 13 13 13 13 13 13 13 13 13 12 12 12 12 12 11 11 11 10 10 10 9 9 9 9 9 9 9 9 9
12 12 12 12 12 12 12 12 12 12 12 12 12 12 12 12 12 12 12 13 13 13 12 12 12 12 12 11 11 11 10 10 10 10 9 9 9 9 9 9 9 9 9
12 12 12 12 12 12 12 12 12 12 12 12 12 12 12 12 12 12 12 12 12 12 12 12 12 12 11 11 11 11 11 10 10 10 10 9 9 9 9 9 9 9 9
Wind_Speed
3 4 4 5 6 6 7 6 7 7 8 8 9 9 8 8 9 9 9 12 13 12 12 12 12 13 13 13 13 14 14 14 14 14 14 14 14 14 13 13 13 13 13
4 4 4 4 5 6 7 7 7 6 6 6 7 8 8 8 9 10 10 11 13 13 13 12 12 13 13 13 13 14 14 14 14 14 14 14 14 14 14 14 14 14 14
5 5 4 4 5 7 7 7 7 6 6 6 6 6 7 8 8 9 10 10 10 12 13 13 13 13 13 13 14 14 15 15 15 15 15 15 15 14 14 14 14 14 14
7 6 4 3 6 7 6 5 4 5 5 5 5 5 6 7 8 9 10 10 10 10 12 14 14 14 14 14 14 14 14 14 14 15 15 15 15 15 15 15 14 14 14
7 7 5 5 6 6 4 4 4 4 5 5 5 5 5 5 5 7 8 9 10 11 11 12 14 14 14 14 13 14 14 14 14 14 14 14 15 15 15 15 15 15 14
7 7 5 5 6 4 4 4 5 4 4 4 6 6 5 5 6 6 6 8 9 10 10 11 11 11 13 13 13 13 13 13 14 14 14 14 14 14 14 14 15 15 15
6 7 5 5 5 4 4 5 5 5 3 3 4 4 5 5 6 5 5 6 7 8 9 10 9 9 10 12 13 13 13 13 13 13 14 13 13 13 14 15 15 15 15
5 6 6 4 5 4 5 5 4 3 2 2 3 3 2 4 4 5 4 4 5 7 7 8 9 9 9 10 12 13 13 12 12 12 13 13 13 13 14 14 14 15 15
4 4 6 5 5 5 5 4 5 5 3 1 2 3 3 2 1 3 4 4 4 4 5 7 8 9 9 9 10 11 12 12 12 12 12 12 12 12 13 13 14 14 15
3 4 5 5 5 4 5 5 4 3 4 3 1 2 2 4 3 1 2 3 4 4 4 5 7 8 8 9 9 10 11 11 11 11 11 12 12 12 12 13 13 14 14
2 3 4 4 4 4 4 4 3 3 3 3 3 2 3 3 3 3 1 1 3 3 3 4 5 6 7 8 8 9 10 11 11 11 11 11 12 12 12 13 13 13 14
1 1 2 3 4 3 4 4 4 4 3 3 3 3 3 3 3 3 3 1 1 1 2 3 4 4 6 7 7 8 9 10 11 11 12 11 11 12 12 13 13 13 14
1 1 1 2 3 3 4 4 4 4 4 4 4 3 3 3 3 4 4 3 1 1 1 1 2 3 4 6 7 8 9 10 11 11 12 12 12 12 13 13 13 14 14
2 2 1 2 2 3 4 4 3 4 4 4 4 4 3 3 4 4 4 5 3 1 1 1 1 2 3 5 6 7 8 10 10 11 12 12 12 12 12 13 13 13 13
2 2 2 2 2 2 3 3 3 4 4 4 4 4 3 3 4 3 4 5 5 3 2 1 0 1 2 5 6 7 7 8 9 10 10 11 11 11 12 12 12 12 12
2 2 2 2 2 2 2 2 2 3 4 3 3 4 4 3 4 4 4 3 3 4 3 2 1 1 2 4 5 6 6 7 8 9 9 10 10 10 10 10 10 10 11
2 3 2 2 2 2 3 3 2 3 3 3 3 4 5 4 4 4 4 4 3 3 3 1 1 1 2 3 4 5 6 6 6 7 8 8 9 9 9 9 9 9 10
3 3 2 2 2 3 3 4 4 3 4 4 4 4 5 4 5 4 4 4 4 4 4 4 1 1 2 2 3 3 3 4 4 5 6 6 7 7 8 8 8 8 8
3 3 3 3 3 3 3 4 4 4 4 4 4 5 5 5 5 4 5 5 4 4 3 4 3 1 1 2 2 2 3 2 2 3 3 4 5 6 6 6 7 7 7
4 4 3 4 3 3 3 3 3 4 4 3 4 5 5 6 7 7 6 6 5 5 4 5 4 2 2 1 2 2 1 1 1 2 2 2 3 4 4 5 5 5 5
4 4 3 3 3 3 3 3 3 4 4 4 3 4 5 6 8 8 6 7 7 6 5 5 4 3 2 3 3 3 2 1 1 0 1 1 1 1 2 2 2 3 3
3 3 4 4 4 4 4 5 4 3 4 4 4 4 4 5 7 9 9 11 11 9 8 6 4 5 5 4 3 4 3 2 2 1 1 0 0 1 2 1 1 0 1
4 4 4 4 4 5 6 6 6 3 4 4 5 4 4 4 5 5 7 10 11 12 12 9 7 7 7 7 7 5 5 4 3 2 2 1 1 1 3 2 2 2 1
4 5 5 5 5 5 6 6 6 4 3 4 5 5 5 4 5 6 6 6 6 7 9 8 8 8 7 9 9 7 6 4 1 1 3 2 1 2 2 3 3 3 3
4 5 4 5 5 6 7 6 5 3 3 4 4 4 6 5 7 8 7 6 6 5 7 9 8 8 9 12 12 7 6 4 2 2 3 2 1 1 1 2 4 4 4
5 4 4 5 5 5 6 7 6 3 3 4 3 4 6 7 7 9 8 8 8 6 6 6 5 5 7 10 14 10 8 5 3 3 4 4 2 1 1 1 2 3 4
Wind_Direction
97 89 88 88 85 86 85 81 77 72 69 67 67 66 58 53 47 42 38 50 56 60 67 75 76 74 73 69 67 67 65 66 63 60 59 57 55 55 55 54 55 54 53
117 109 102 95 90 92 90 86 82 80 74 71 64 59 55 53 50 47 43 45 52 59 62 67 72 73 74 71 69 67 65 65 62 61 60 57 54 54 54 54 54 54 52
127 121 113 107 103 102 99 92 83 80 78 73 64 57 55 54 54 50 47 44 47 54 59 63 65 69 73 72 69 67 65 63 60 59 58 57 55 55 56 55 55 55 53
136 127 121 119 116 107 101 96 87 83 78 76 69 56 53 52 52 53 52 49 48 50 55 59 62 64 68 69 68 66 65 64 61 58 56 56 56 55 56 55 55 54 53
143 136 130 127 123 110 102 105 92 99 97 88 79 62 52 47 44 52 51 50 51 52 52 53 57 59 63 64 66 65 64 63 62 60 58 57 56 55 54 54 55 54 52
141 134 129 133 129 118 110 107 105 92 97 100 90 71 53 46 45 45 46 48 51 52 53 51 50 52 56 58 61 61 61 60 60 58 57 57 56 55 54 54 55 55 52
139 135 136 138 137 134 135 129 117 105 93 101 87 64 43 44 46 39 40 46 47 50 53 52 50 49 48 50 53 55 55 57 57 56 55 56 57 55 56 56 54 53 52
130 143 145 151 145 133 133 139 130 119 113 97 108 98 50 22 25 32 34 44 42 46 50 52 52 50 48 48 49 50 49 52 55 55 55 55 56 57 57 56 54 54 52
118 129 146 150 152 152 159 161 152 140 145 108 88 132 135 173 25 16 28 38 40 43 41 48 51 50 50 50 49 48 48 49 52 53 53 54 57 60 58 58 57 55 53
114 127 143 152 157 159 163 174 168 151 144 152 100 70 113 140 137 86 13 18 36 43 36 47 46 47 49 52 52 51 50 48 48 49 52 57 61 61 60 59 58 56 55
95 127 147 156 159 165 172 173 171 166 159 159 155 138 102 81 98 133 136 2 22 28 37 44 45 44 44 50 53 54 53 51 50 50 54 58 60 60 59 60 59 58 57
21 89 151 170 174 172 178 183 181 176 176 164 161 158 155 151 159 145 149 150 80 0 24 41 41 39 44 50 58 61 59 58 55 54 54 56 56 56 58 59 61 59 59
286 264 193 181 188 193 187 183 178 184 181 178 183 183 176 167 150 144 139 142 126 13 17 23 25 36 50 57 57 63 65 64 62 61 57 56 58 58 57 58 60 58 58
231 236 216 201 200 193 190 181 181 190 186 192 198 184 171 174 158 154 151 143 130 70 28 325 11 35 56 68 66 69 69 70 69 66 62 57 57 58 58 57 57 57 57
234 215 199 197 202 192 185 178 188 194 187 193 193 189 183 178 168 166 153 151 150 164 210 222 153 26 78 83 82 81 76 74 72 71 67 63 60 59 58 56 55 56 55
244 206 202 201 199 185 176 177 191 191 186 198 188 180 182 176 171 166 161 151 148 156 175 190 178 144 113 107 92 86 79 77 74 73 73 70 66 63 62 59 56 55 55
225 210 211 204 202 200 188 180 198 193 193 205 198 187 192 177 173 170 159 151 149 141 150 157 106 99 103 103 93 89 81 79 78 77 74 71 68 65 62 60 58 56 54
222 213 208 207 211 204 195 190 202 204 201 205 208 198 197 181 176 170 167 168 165 151 149 159 153 124 117 132 113 96 84 81 87 82 77 75 72 67 63 61 58 56 55
222 212 202 209 215 211 206 207 205 205 208 207 203 204 199 180 185 178 174 172 168 159 142 149 156 131 111 124 102 89 78 58 87 86 81 75 73 69 63 62 59 55 54
218 214 211 214 212 211 206 208 208 207 209 212 207 206 201 192 191 183 180 176 164 153 142 144 147 144 136 133 130 134 104 35 40 63 78 80 77 65 57 57 62 62 59
225 213 206 214 213 211 211 210 212 210 206 212 213 210 212 207 200 189 184 176 165 159 156 156 158 151 163 166 181 172 167 140 330 1 56 49 53 41 32 32 43 56 59
227 211 211 209 215 230 231 217 207 206 205 208 215 217 219 214 209 202 197 182 173 169 173 171 175 183 192 185 161 162 155 155 239 227 158 255 157 264 265 303 341 7 46
225 220 222 212 216 229 230 224 215 203 208 214 215 209 216 216 204 196 194 188 189 189 179 174 182 195 189 186 169 169 179 179 199 189 154 221 233 253 254 259 273 248 249
226 226 225 221 221 234 232 227 217 209 219 221 219 212 207 216 203 189 183 184 194 199 195 188 192 197 191 179 177 177 171 149 117 163 159 203 223 238 263 251 256 245 241
234 232 227 218 220 237 233 223 211 202 225 233 229 218 206 210 211 187 177 184 195 210 204 197 194 191 186 178 166 142 144 150 195 221 188 184 206 234 280 271 258 244 231
236 232 234 227 223 233 234 225 213 201 223 237 236 229 215 211 210 190 186 188 201 210 187 182 180 178 177 177 175 173 170 169 173 211 195 182 181 165 277 289 275 252 237
Height
1539 1540 1540 1541 1542 1542 1543 1543 1544 1544 1544 1545 1545 1545 1545 1545 1545 1544 1544 1544 1544 1544 1543 1543 1543 1542 1542 1542 1541 1540 1540 1539 1538 1538 1537 1536 1535 1534 1533 1532 1531 1531 1530
1540 1541 1542 1542 1543 1543 1544 1545 1545 1545 1546 1546 1546 1546 1546 1546 1546 1546 1546 1546 1546 1545 1545 1545 1545 1544 1544 1543 1543 1542 1541 1540 1540 1539 1538 1537 1536 1535 1535 1534 1533 1532 1531
1541 1542 1542 1543 1544 1544 1545 1545 1546 1547 1547 1547 1547 1548 1548 1548 1548 1548 1548 1547 1547 1547 1547 1546 1546 1546 1546 1545 1545 1544 1543 1542 1541 1540 1539 1539 1538 1537 1536 1535 1534 1533 1532
1541 1542 1543 1544 1545 1545 1546 1546 1547 1548 1548 1548 1549 1549 1549 1549 1549 1550 1550 1549 1549 1549 1549 1548 1548 1548 1548 1547 1546 1546 1545 1544 1543 1542 1541 1540 1539 1538 1537 1536 1535 1534 1532
1542 1543 1543 1544 1545 1546 1546 1547 1548 1549 1549 1550 1550 1550 1550 1551 1551 1551 1551 1551 1551 1551 1551 1550 1550 1550 1550 1549 1548 1548 1547 1546 1545 1544 1543 1542 1541 1540 1539 1537 1536 1535 1533
1542 1543 1544 1545 1546 1546 1547 1548 1549 1549 1550 1551 1551 1551 1552 1552 1552 1552 1552 1552 1553 1553 1552 1552 1552 1552 1551 1551 1550 1549 1548 1547 1546 1546 1545 1544 1542 1541 1540 1539 1537 1536 1534
1542 1543 1544 1545 1546 1547 1548 1549 1549 1550 1551 1552 1552 1552 1553 1553 1554 1554 1554 1554 1554 1554 1554 1554 1554 1554 1553 1553 1552 1551 1550 1549 1548 1547 1546 1545 1544 1543 1542 1540 1539 1537 1535
1542 1543 1544 1545 1546 1547 1548 1549 1550 1550 1551 1552 1553 1553 1554 1556 1555 1555 1555 1555 1555 1555 1555 1556 1556 1555 1555 1554 1554 1553 1552 1551 1550 1549 1548 1547 1545 1544 1543 1542 1540 1539 1537
1542 1543 1544 1545 1546 1547 1548 1549 1550 1551 1551 1552 1553 1554 1554 1555 1556 1556 1556 1556 1556 1556 1556 1557 1557 1557 1556 1556 1555 1554 1553 1552 1551 1550 1549 1548 1547 1546 1544 1543 1542 1540 1538
1542 1543 1544 1545 1546 1547 1548 1549 1550 1551 1551 1552 1553 1553 1554 1554 1555 1556 1557 1557 1557 1557 1557 1557 1557 1557 1557 1557 1556 1555 1554 1553 1552 1551 1550 1549 1548 1547 1546 1545 1543 1542 1540
1541 1542 1543 1544 1545 1546 1547 1548 1549 1550 1551 1552 1552 1553 1554 1554 1555 1555 1556 1557 1557 1557 1558 1558 1558 1558 1558 1558 1557 1556 1555 1555 1554 1552 1551 1551 1550 1549 1548 1546 1545 1544 1542
1541 1541 1542 1543 1544 1545 1546 1547 1548 1549 1550 1551 1552 1552 1553 1553 1554 1555 1555 1556 1557 1558 1558 1558 1558 1559 1559 1558 1558 1557 1556 1556 1555 1554 1552 1552 1551 1550 1549 1548 1547 1545 1544
1540 1540 1541 1542 1543 1544 1545 1546 1547 1548 1549 1550 1550 1551 1552 1553 1554 1554 1555 1555 1556 1557 1558 1558 1558 1559 1559 1559 1558 1558 1557 1557 1556 1555 1554 1553 1552 1551 1550 1549 1548 1547 1545
1539 1539 1540 1541 1541 1542 1543 1544 1545 1546 1547 1548 1549 1550 1551 1552 1553 1554 1554 1555 1555 1557 1557 1558 1558 1559 1559 1559 1559 1558 1558 1557 1557 1556 1555 1554 1553 1552 1551 1550 1549 1548 1547
1538 1538 1538 1539 1540 1541 1541 1542 1543 1544 1545 1546 1547 1548 1549 1550 1551 1552 1553 1554 1555 1555 1556 1557 1558 1558 1559 1559 1559 1559 1558 1558 1557 1556 1556 1555 1554 1553 1552 1551 1550 1549 1547
1536 1536 1537 1537 1538 1539 1539 1540 1541 1542 1543 1544 1545 1546 1547 1548 1550 1551 1552 1553 1554 1554 1555 1555 1556 1557 1558 1558 1559 1558 1558 1558 1557 1557 1556 1555 1554 1553 1552 1551 1550 1549 1548
1534 1535 1535 1536 1536 1536 1537 1538 1539 1540 1541 1542 1543 1544 1545 1546 1547 1548 1550 1551 1552 1553 1553 1554 1555 1556 1557 1557 1558 1558 1558 1558 1557 1557 1556 1556 1555 1554 1553 1552 1551 1550 1549
1532 1533 1533 1534 1534 1534 1535 1536 1537 1537 1538 1539 1540 1541 1542 1544 1545 1546 1547 1549 1550 1551 1552 1552 1553 1554 1555 1556 1557 1557 1557 1557 1557 1557 1556 1556 1555 1554 1553 1552 1551 1550 1549
1530 1530 1531 1531 1532 1532 1533 1534 1534 1535 1536 1537 1538 1538 1540 1541 1542 1543 1545 1546 1548 1549 1550 1551 1552 1553 1554 1554 1555 1556 1556 1556 1556 1556 1556 1555 1555 1554 1553 1552 1551 1550 1550
1527 1527 1528 1528 1529 1530 1530 1531 1532 1532 1533 1534 1535 1536 1537 1538 1539 1540 1542 1543 1545 1546 1547 1549 1550 1551 1552 1553 1553 1554 1554 1555 1555 1555 1555 1555 1554 1554 1553 1552 1551 1550 1550
1524 1524 1525 1525 1526 1527 1527 1528 1529 1529 1530 1531 1532 1533 1534 1535 1536 1538 1539 1540 1542 1543 1545 1546 1547 1548 1549 1550 1551 1552 1553 1553 1553 1553 1553 1553 1553 1553 1552 1551 1551 1550 1549
1520 1521 1521 1522 1523 1523 1524 1525 1526 1527 1527 1528 1529 1530 1531 1532 1533 1535 1536 1537 1539 1540 1541 1543 1544 1545 1546 1547 1548 1549 1550 1551 1551 1552 1552 1552 1552 1551 1551 1550 1550 1549 1549
1516 1516 1517 1518 1519 1520 1521 1521 1522 1523 1524 1525 1526 1527 1527 1529 1530 1531 1532 1534 1535 1537 1539 1540 1541 1542 1543 1545 1546 1547 1548 1549 1549 1550 1550 1549 1550 1550 1550 1549 1549 1548 1548
1512 1512 1513 1514 1515 1516 1517 1518 1519 1519 1520 1521 1522 1523 1524 1525 1526 1527 1529 1530 1532 1533 1535 1537 1538 1540 1541 1542 1543 1545 1545 1546 1547 1548 1548 1548 1548 1548 1548 1548 1547 1547 1546
1507 1508 1509 1510 1510 1512 1513 1514 1515 1515 1516 1517 1518 1519 1520 1521 1522 1524 1525 1527 1528 1530 1532 1534 1535 1536 1538 1539 1540 1541 1542 1543 1543 1544 1545 1545 1545 1545 1545 1545 1545 1545 1544
1503 1504 1504 1505 1506 1507 1508 1510 1510 1511 1511 1512 1514 1515 1516 1517 1518 1520 1521 1523 1524 1526 1528 1529 1531 1532 1534 1535 1537 1538 1539 1540 1540 1541 1542 1543 1543 1543 1543 1543 1542 1542 1542